This is the latest recevied weather packets stored in our database for station/object K6POO-1. If no packets are shown the sender has not sent any weather packets the latest 10 day(s).
| Time | Temp. | Humidity | Pressure | Rain* | Wind** | Luminosity | Snow |
|---|---|---|---|---|---|---|---|
| 1778164778 | 11.67° C | 91% | 1019.7 hPa | 0 mm | - | 45 W/m² | - |
| 1778164476 | 11.67° C | 91% | 1019.7 hPa | 0 mm | - | 41 W/m² | - |
| 1778164172 | 11.67° C | 91% | 1019.8 hPa | 0 mm | - | 40 W/m² | - |
| 1778163868 | 11.67° C | 91% | 1019.6 hPa | 0 mm | - | 35 W/m² | - |
| 1778163566 | 11.67° C | 91% | 1019.8 hPa | 0 mm | - | 29 W/m² | - |
| 1778163262 | 11.67° C | 91% | 1019.6 hPa | 0 mm | - | 24 W/m² | - |
| 1778162959 | 11.67° C | 91% | 1019.8 hPa | 0 mm | - | 23 W/m² | - |
| 1778162655 | 11.67° C | 91% | 1019.8 hPa | 0 mm | - | 19 W/m² | - |
| 1778162353 | 11.11° C | 91% | 1019.6 hPa | 0 mm | - | 18 W/m² | - |
| 1778162049 | 11.67° C | 91% | 1019.5 hPa | 0 mm | - | 15 W/m² | - |
| 1778161747 | 11.67° C | 91% | 1019.6 hPa | 0 mm | - | 13 W/m² | - |
| 1778161443 | 11.67° C | 91% | 1019.5 hPa | 0 mm | - | 10 W/m² | - |
| 1778161139 | 11.67° C | 91% | 1019.5 hPa | 0 mm | - | 8 W/m² | - |
| 1778160835 | 11.11° C | 91% | 1019.3 hPa | 0 mm | - | 6 W/m² | - |
| 1778160533 | 11.11° C | 91% | 1019.5 hPa | 0 mm | - | 5 W/m² | - |
| 1778160230 | 11.11° C | 91% | 1019.2 hPa | 0 mm | - | 4 W/m² | - |
| 1778159927 | 11.67° C | 91% | 1019.2 hPa | 0 mm | - | 3 W/m² | - |
| 1778159624 | 11.67° C | 91% | 1019.3 hPa | 0 mm | - | 2 W/m² | - |
| 1778159320 | 11.67° C | 91% | 1019.1 hPa | 0 mm | - | 1 W/m² | - |
| 1778159017 | 11.67° C | 91% | 1019.2 hPa | 0 mm | - | 1 W/m² | - |
| 1778158716 | 11.67° C | 91% | 1019.3 hPa | 0 mm | - | 0 W/m² | - |
| 1778158413 | 11.67° C | 91% | 1019.2 hPa | 0 mm | - | 0 W/m² | - |
| 1778158110 | 11.67° C | 90% | 1018.9 hPa | 0 mm | - | 0 W/m² | - |
| 1778157806 | 11.67° C | 90% | 1019.3 hPa | 0 mm | - | 0 W/m² | - |
| 1778157506 | 11.67° C | 90% | 1019.1 hPa | 0 mm | - | 0 W/m² | - |
* Rain latest hour (hover to see other rain measurements)
** Current wind speed in m/s (hover to see current wind gust speed)